Location: Huntsville
(41.2590°N, 111.7678°W)
Time: 04:02:35
(UTC+00:00)

Vanguard 1 Rocket - All Passes

Search period start: 25 September 2022 00:00
Search period end: 05 October 2022 00:00
Orbit: 651 x 4224 km, 34.3° (Epoch: 24 September)

Date Brightness Start Highest point End Pass type
(mag) Time Alt. Az. Time Alt. Az. Time Alt. Az.
25 Sep - 02:37:05 10° SSW 02:49:47 23° SSE 02:58:11 10° ESE visible
25 Sep - 05:04:04 10° SW 05:17:03 42° SSE 05:24:07 10° E visible
25 Sep - 07:33:51 10° WSW 07:42:40 49° S 07:47:49 10° ESE night (unlit)
25 Sep - 10:02:29 10° WSW 10:06:50 22° SSW 10:10:22 10° SSE night (unlit)
26 Sep - 01:26:24 10° S 01:36:51 16° SSE 01:44:46 10° ESE visible
26 Sep - 03:50:11 10° SW 04:04:55 36° SSE 04:13:16 10° E visible
26 Sep - 06:19:59 10° WSW 06:31:23 51° S 06:37:31 10° ESE visible
26 Sep - 08:49:35 10° W 08:56:12 36° SSW 09:00:37 10° SE night (unlit)
27 Sep - 02:36:51 10° SSW 02:52:20 30° SSE 03:01:51 10° E visible
27 Sep - 05:05:38 10° WSW 05:19:41 49° S 05:27:03 10° E visible
27 Sep - 07:36:11 10° W 07:45:19 48° S 07:50:35 10° ESE visible
27 Sep - 10:05:31 10° WSW 10:09:16 18° SSW 10:12:23 10° S night (unlit)
28 Sep - 01:24:44 10° S 01:39:19 23° SSE 01:49:24 10° ESE visible
28 Sep - 03:51:12 10° SW 04:07:30 44° SSE 04:16:19 10° E visible
28 Sep - 06:22:04 10° WSW 06:34:01 55° S 06:40:21 10° ESE visible
28 Sep - 08:52:10 10° W 08:58:44 31° SSW 09:03:08 10° SE night (unlit)
29 Sep - 00:15:06 10° S 00:26:00 16° SE 00:34:45 10° ESE daylight
29 Sep - 02:37:09 10° SW 02:54:49 37° SSE 03:05:08 10° E visible
29 Sep - 05:07:23 10° WSW 05:22:17 55° S 05:29:56 10° E visible
29 Sep - 07:38:32 10° W 07:47:54 46° SSW 07:53:17 10° ESE visible
29 Sep - 10:08:59 10° WSW 10:11:37 13° SW 10:13:53 10° S night (unlit)
30 Sep - 01:24:06 10° SSW 01:41:41 29° SSE 01:53:11 10° E visible
30 Sep - 03:52:29 10° SW 04:10:02 51° SSE 04:19:15 10° E visible
30 Sep - 06:24:13 10° W 06:36:39 56° S 06:43:08 10° ESE visible
30 Sep - 08:54:50 10° W 09:01:10 26° SSW 09:05:28 10° SSE night (unlit)
01 Oct - 00:12:47 10° S 00:28:17 22° SE 00:39:51 10° ESE daylight
01 Oct - 02:37:53 10° SW 02:57:15 44° SSE 03:08:11 10° E visible
01 Oct - 05:09:15 10° WSW 05:24:52 59° S 05:32:45 10° E visible
01 Oct - 07:40:55 10° W 07:50:26 42° SSW 07:55:54 10° SE visible
01 Oct - 23:05:05 10° SSE 23:14:45 14° SE 23:23:10 10° ESE daylight
02 Oct - 01:24:07 10° SSW 01:44:00 36° SSE 01:56:31 10° E visible
02 Oct - 03:53:58 10° WSW 04:12:32 57° S 04:22:07 10° E visible
02 Oct - 06:26:24 10° W 06:39:13 55° SSW 06:45:53 10° ESE visible
02 Oct - 08:57:39 10° W 09:03:29 22° SW 09:07:36 10° SSE night (unlit)
03 Oct - 00:11:47 10° SSW 00:30:27 28° SE 00:43:50 10° E daylight
03 Oct - 02:38:55 10° SW 02:59:39 51° SSE 03:11:06 10° E visible
03 Oct - 05:11:13 10° WSW 05:27:25 61° S 05:35:33 10° ESE visible
03 Oct - 07:43:20 10° W 07:52:51 37° SSW 07:58:25 10° SE visible
03 Oct - 23:01:44 10° S 23:16:48 20° SE 23:29:11 10° E daylight
04 Oct - 01:24:36 10° SW 01:46:16 43° SSE 01:59:35 10° E visible
04 Oct - 03:55:39 10° WSW 04:15:02 61° S 04:24:55 10° E visible
04 Oct - 06:28:36 10° W 06:41:43 52° SSW 06:48:34 10° ESE visible
04 Oct - 09:00:44 10° W 09:05:40 17° SW 09:09:22 10° S night (unlit)
04 Oct - 21:58:17 10° SE 22:03:16 11° SE 22:08:02 10° ESE daylight
